Regional Weather Roundup
Issued by NWS

Home | Current Version | Previous Version | Text Only | Print | Product List | Glossary Off
Versions: 1 2 3 4 5 6 7 8 9 10 11 12 13 14 15 16 17 18 19 20 21 22 23 24 25 26 27 28 29 30 31 32 33 34 35 36 37 38 39 40 41 42 43 44 45 46 47 48 49 50

000
ASUS43 KTOP 191708
RWRKS

WEATHER ROUNDUP FOR KANSAS
NATIONAL WEATHER SERVICE GOODLAND KS
1200 PM CDT THU OCT 19 2017

NOTE:  "FAIR" INDICATES FEW OR NO CLOUDS BELOW 12,000 FEET WITH NO
SIGNIFICANT WEATHER AND/OR OBSTRUCTIONS TO VISIBILITY.

KSZ001>006-013>018-027>032-041>047-191800-
NORTHWEST KANSAS

CITY           SKY/WX    TMP DP  RH WIND       PRES   REMARKS
GOODLAND       SUNNY     74  46  36 S15       30.05F
HAYS           SUNNY     70  48  45 S7        30.06F
HILL CITY      SUNNY     71  48  43 VRB3      30.06F
RUSSELL        SUNNY     71  51  49 VRB7      30.05F
$$

KSZ061>065-074>080-084>089-191800-
SOUTHWEST KANSAS

CITY           SKY/WX    TMP DP  RH WIND       PRES   REMARKS
DODGE CITY     SUNNY     74  45  35 MISG      30.08F
ELKHART          N/A     67  49  52 SE7         N/A
GARDEN CITY    SUNNY     71  44  37 S10       30.06F
GREAT BEND     SUNNY     72  50  45 S12       30.07F
LIBERAL        CLOUDY    66  46  48 S13       30.08F
PRATT          SUNNY     70  44  39 S14       30.09F
$$

KSZ066>073-081>083-090>101-191800-
SOUTHEAST KANSAS

CITY           SKY/WX    TMP DP  RH WIND       PRES   REMARKS
CHANUTE        SUNNY     72  53  51 S13       30.15S
COFFEYVILLE    SUNNY     74  54  49 S13       30.15F
HUTCHINSON     SUNNY     71  51  49 S12       30.09F
MEDICINE LODGE   N/A     69  47  45 S9        30.10F
NEWTON         SUNNY     71  49  45 SW14      30.12R
PARSONS        SUNNY     72  52  49 S10       30.17S
WICHITA INTL   MOSUNNY   71  50  47 S14       30.11S
WICHITA JABRA  SUNNY     71  50  47 S14       30.11S
WICHITA MCCONL SUNNY     72  49  44 SW12      30.11S
WINFIELD       SUNNY     70  51  51 S10       30.14S
$$

KSZ007>012-019>026-033>040-048>060-102>105-191800-
NORTHEAST KANSAS

CITY           SKY/WX    TMP DP  RH WIND       PRES   REMARKS
CONCORDIA      SUNNY     68  54  60 S7        30.07S
EMPORIA        SUNNY     72  51  47 S14       30.11F
LAWRENCE       SUNNY     71  53  52 SE6       30.11F
MANHATTAN      SUNNY     73  52  47 S7        30.08F
MARYSVILLE     SUNNY     70  54  56 SW7       30.07F
OLATHE IND     SUNNY     72  50  45 S10       30.13S
OLATHE EXE     SUNNY     69  51  52 S9        30.13S
SALINA         SUNNY     72  54  53 S8        30.08F
TOPEKA BILLARD SUNNY     71  53  52 S7        30.10F
TOPEKA FORBES  SUNNY     73  52  47 SW10      30.10F
$$



USA.gov is the U.S. government's official web portal to all federal, state and local government web resources and services.